Location: BGSU Observatory
(41.3799°N, 83.6397°W)
Time: 02:18:45
(UTC-05:00)

Amateur Radio Satellites - All Passes

Search period start: 03 March 2015 01:48
Search period end: 04 March 2015 01:48
Location: BGSU Observatory, 41.3799°N, 83.6397°W

Satellite Date Start Highest point End Downlink Frequencies (MHz)
Time Altitude Azimuth
ITAMSAT 1 03 Mar 01:48:45 01:51:53 16° 90° (E) 01:55:13 435.822/435.867
SWISSCUBE 03 Mar 02:02:13 02:06:33 33° 264° (W) 02:10:52 437.505
BEESAT 3 03 Mar 02:04:56 02:08:55 46° 52° (NE) 02:12:53 437.485
RS-15 03 Mar 02:07:21 02:17:14 36° 325° (NW) 02:27:11 29.354- 29.394
BEESAT 03 Mar 02:11:00 02:15:12 30° 265° (W) 02:19:21 436.000
KKS-1 03 Mar 02:17:55 02:22:22 67° 74° (ENE) 02:26:49 437.445
CUSAT 1 03 Mar 02:20:31 02:21:27 10° 292° (WNW) 02:21:59 437.405
STARS 03 Mar 02:23:55 02:28:12 50° 73° (ENE) 02:32:30 437.465
AIST 2 03 Mar 02:29:30 02:33:16 30° 48° (NE) 02:37:02 435.215
BEESAT 2 03 Mar 02:30:38 02:34:48 73° 56° (NE) 02:38:54 435.950
SO-50 03 Mar 02:36:07 02:40:40 57° 307° (NW) 02:45:24 436.795
ITUPSAT 1 03 Mar 02:39:57 02:43:02 16° 270° (W) 02:45:56 437.325
Gurwin Techsat 1B 03 Mar 03:00:21 03:05:37 59° 100° (E) 03:10:52 435.225
M-CUBED/EXP-1 PRIME 03 Mar 03:00:31 03:02:30 15° 61° (ENE) 03:04:38 437.505
AUBIESAT-1 03 Mar 03:02:26 03:04:15 14° 61° (ENE) 03:06:14 437.475
YUBILEINY 03 Mar 03:10:50 03:19:23 51° 75° (ENE) 03:27:57 435.215
JAS-2 03 Mar 03:20:26 03:23:47 14° 84° (E) 03:27:45 435.910
ITAMSAT 1 03 Mar 03:26:43 03:31:54 61° 287° (WNW) 03:37:00 435.822/435.867
AO-7 03 Mar 03:28:19 03:34:12 22° 90° (E) 03:40:25 29.400- 29.500
Oscar 19 03 Mar 03:28:50 03:32:40 21° 295° (WNW) 03:36:22 437.125/150
MOZHAYETS 4 03 Mar 03:32:27 03:35:44 21° 67° (ENE) 03:39:11
BEESAT 3 03 Mar 03:43:59 03:46:42 17° 249° (WSW) 03:49:15 437.485
KKS-1 03 Mar 03:57:58 03:59:34 11° 272° (W) 04:00:53 437.445
STARS 03 Mar 04:02:21 04:05:01 15° 270° (W) 04:07:31 437.465
AIST 2 03 Mar 04:08:08 04:11:52 29° 245° (WSW) 04:15:27 435.215
BEESAT 2 03 Mar 04:11:41 04:12:27 10° 251° (WSW) 04:12:57 435.950
HORYU 2 03 Mar 04:12:26 04:16:54 85° 99° (E) 04:21:22 437.375
SO-50 03 Mar 04:20:45 04:22:22 11° 329° (NNW) 04:23:49 436.795
RS-15 03 Mar 04:26:19 04:34:09 21° 359° (N) 04:42:12 29.354- 29.394
M-CUBED/EXP-1 PRIME 03 Mar 04:34:20 04:37:17 29° 258° (WSW) 04:40:18 437.505
AUBIESAT-1 03 Mar 04:35:55 04:38:56 32° 258° (WSW) 04:42:02 437.475
Gurwin Techsat 1B 03 Mar 04:41:28 04:45:12 19° 297° (WNW) 04:48:45 435.225
JAS-2 03 Mar 05:02:30 05:09:59 75° 102° (ESE) 05:17:52 435.910
YUBILEINY 03 Mar 05:08:09 05:15:59 35° 274° (W) 05:23:35 435.215
MOZHAYETS 4 03 Mar 05:08:27 05:12:45 40° 263° (W) 05:17:04
AO-7 03 Mar 05:19:39 05:27:58 79° 290° (WNW) 05:36:14 29.400- 29.500
CUTE-I 03 Mar 05:28:58 05:29:45 10° 86° (E) 05:30:56 437.470
CUBESAT XI-V 03 Mar 05:31:39 05:35:36 28° 69° (ENE) 05:39:40 437.345
PCSat 03 Mar 05:39:54 05:45:07 46° 54° (NE) 05:50:20 145.827
STRAND 1 03 Mar 05:46:27 05:50:44 28° 67° (ENE) 05:55:08 437.568
HORYU 2 03 Mar 05:52:18 05:52:59 10° 299° (WNW) 05:53:24 437.375
PRISM 03 Mar 06:05:40 06:09:46 67° 75° (ENE) 06:13:56 437.425
RS-15 03 Mar 06:41:25 06:51:18 34° 33° (NNE) 07:01:44 29.354- 29.394
JAS-2 03 Mar 06:48:39 06:54:28 25° 298° (WNW) 07:00:18 435.910
Cubesat XI-IV 03 Mar 06:56:28 07:01:53 75° 103° (ESE) 07:07:14 437.490
CUTE-I 03 Mar 07:05:20 07:10:44 88° 96° (E) 07:16:06 437.470
CUBESAT XI-V 03 Mar 07:08:52 07:13:00 30° 265° (W) 07:17:08 437.345
AO-7 03 Mar 07:14:12 07:19:39 19° 309° (NW) 07:24:44 29.400- 29.500
PCSat 03 Mar 07:23:51 07:28:18 25° 251° (WSW) 07:32:37 145.827
STRAND 1 03 Mar 07:25:06 07:29:50 36° 263° (W) 07:34:34 437.568
GONETS M04 03 Mar 07:25:19 07:29:29 15° 56° (NE) 07:34:16
AIST 1 03 Mar 07:33:18 07:37:39 78° 97° (E) 07:42:04
HO-68 03 Mar 08:05:43 08:10:13 18° 89° (E) 08:15:05 435.675
Cubesat XI-IV 03 Mar 08:38:14 08:41:25 16° 299° (WNW) 08:44:22 437.490
CUTE-I 03 Mar 08:47:35 08:50:09 13° 300° (WNW) 08:52:26 437.470
SEEDS 03 Mar 08:47:43 08:51:03 23° 93° (E) 08:54:29 437.485
CANX-2 03 Mar 08:51:27 08:55:17 33° 96° (E) 08:59:10 2200.000
RS-15 03 Mar 08:53:51 09:05:21 88° 238° (WSW) 09:17:21 29.354- 29.394
BRITE-PL 03 Mar 09:03:43 09:08:16 69° 101° (E) 09:12:30 437.365/2234.400
GOMX 1 03 Mar 09:05:49 09:10:02 45° 98° (E) 09:14:04 467.674
ISS 03 Mar 09:08:30 09:11:40 56° 141° (SE) 09:14:50 145.825
ANTELSAT 03 Mar 09:09:06 09:11:16 14° 65° (ENE) 09:13:35 437.575/2403.000
CUTE 1.7 + AOD 2 03 Mar 09:09:46 09:13:54 48° 99° (E) 09:18:02 437.475
O/OREOS (USA 219) 03 Mar 09:13:11 09:17:25 40° 106° (ESE) 09:21:43 437.305
GONETS M04 03 Mar 09:19:35 09:28:20 72° 80° (E) 09:37:08
DELFI C3 03 Mar 09:22:03 09:24:11 14° 90° (E) 09:26:29 145.870
UWE-3 03 Mar 09:22:30 09:23:10 10° 88° (E) 09:24:05 435.000/436.395/437.385
POLYITAN 1 03 Mar 09:24:12 09:25:19 11° 63° (ENE) 09:26:40 437.675
POPSAT HIP 1 03 Mar 09:24:31 09:25:33 11° 63° (ENE) 09:26:48 437.405
SO-50 03 Mar 09:27:41 09:31:23 21° 41° (NE) 09:35:11 436.795
DOVE 4 03 Mar 09:37:55 09:42:12 72° 102° (ESE) 09:46:19 437.250
CINEMA 3 03 Mar 09:41:49 09:45:45 40° 98° (E) 09:49:40 145.822/145.860
NANOSAT C BR1 03 Mar 09:45:26 09:48:20 18° 67° (ENE) 09:51:21 145.865
Oscar 11 03 Mar 09:48:11 09:52:12 36° 97° (E) 09:56:14 145.826/435.025
AAUSAT CUBESAT 2 03 Mar 09:51:26 09:55:39 88° 106° (ESE) 09:59:51 437.432
HO-68 03 Mar 09:51:38 09:58:51 81° 288° (WNW) 10:06:03 435.675
COMPASS 1 03 Mar 09:54:30 09:58:43 75° 284° (WNW) 10:02:55 437.405
CUBEBUG 2 03 Mar 09:58:39 10:02:26 34° 97° (E) 10:06:14 437.445
UNISAT 6 03 Mar 10:04:37 10:08:54 53° 74° (ENE) 10:13:08 437.425
DX 1 03 Mar 10:13:36 10:17:30 32° 97° (E) 10:21:24 434.975-435.025
QB50P1 03 Mar 10:17:11 10:21:11 39° 72° (ENE) 10:25:12 145.935-145.965
AISAT 03 Mar 10:20:33 10:23:13 16° 91° (E) 10:26:02 437.250
QB50P2 03 Mar 10:21:09 10:25:14 44° 73° (ENE) 10:29:20 145.880/145.840
SEEDS 03 Mar 10:23:12 10:26:56 30° 289° (WNW) 10:30:36 437.485
BUGSAT 1 03 Mar 10:24:27 10:28:20 35° 71° (ENE) 10:32:17 437.445
50 SAT 03 Mar 10:25:45 10:28:10 16° 91° (E) 10:30:42 437.505
CANX-2 03 Mar 10:27:47 10:31:05 22° 292° (WNW) 10:34:17 2200.000
TIGRISAT 03 Mar 10:29:17 10:33:42 85° 257° (WSW) 10:38:03 435.000
VELOX 1 03 Mar 10:29:24 10:32:33 19° 92° (E) 10:35:49 145.980
FUNcube-1 03 Mar 10:34:01 10:38:07 58° 100° (E) 10:42:14 145.935
HUMSAT D 03 Mar 10:34:14 10:37:50 29° 96° (E) 10:41:29 437.325/437.525
ZACube-1 03 Mar 10:35:29 10:39:37 61° 100° (E) 10:43:44 437.345
DUCHIFAT 1 03 Mar 10:35:31 10:39:45 63° 75° (ENE) 10:43:59 145.980
UKube-1 03 Mar 10:42:05 10:46:25 63° 101° (E) 10:50:42 .
ANTELSAT 03 Mar 10:43:20 10:47:41 57° 260° (W) 10:51:57 437.575/2403.000
BRITE-PL 03 Mar 10:44:23 10:46:12 12° 299° (WNW) 10:47:45 437.365/2234.400
GOMX 1 03 Mar 10:45:07 10:47:50 16° 295° (WNW) 10:50:20 467.674
ISS 03 Mar 10:45:35 10:48:17 24° 338° (NNW) 10:50:59 145.825
DANDE 03 Mar 10:46:47 10:48:02 13° 70° (ENE) 10:49:21 436.750
CUTE 1.7 + AOD 2 03 Mar 10:46:54 10:49:30 16° 294° (WNW) 10:51:57 437.475
ESTCUBE 1 03 Mar 10:47:42 10:50:17 15° 90° (E) 10:53:03 437.505/2401.250
O/OREOS (USA 219) 03 Mar 10:53:26 10:57:02 22° 305° (NW) 11:00:35 437.305
DELFI C3 03 Mar 10:55:46 10:59:41 45° 287° (WNW) 11:03:35 145.870
UWE-3 03 Mar 10:56:07 11:00:14 62° 286° (WNW) 11:04:21 435.000/436.395/437.385
POLYITAN 1 03 Mar 10:56:27 11:00:45 73° 258° (WSW) 11:05:03 437.675
POPSAT HIP 1 03 Mar 10:56:38 11:00:55 74° 258° (WSW) 11:05:13 437.405
SO-50 03 Mar 11:07:30 11:12:25 64° 240° (WSW) 11:17:16 436.795
RS-15 03 Mar 11:08:07 11:16:34 23° 257° (WSW) 11:24:35 29.354- 29.394
CUSAT 1 03 Mar 11:11:40 11:14:11 46° 78° (ENE) 11:16:47 437.405
GONETS M04 03 Mar 11:17:47 11:24:27 24° 278° (W) 11:30:47
DOVE 4 03 Mar 11:18:35 11:19:25 10° 298° (WNW) 11:20:00 437.250
NANOSAT C BR1 03 Mar 11:19:54 11:23:57 40° 262° (W) 11:28:00 145.865
CINEMA 3 03 Mar 11:19:57 11:22:43 17° 294° (WNW) 11:25:20 145.822/145.860
Oscar 11 03 Mar 11:24:57 11:28:11 20° 293° (WNW) 11:31:18 145.826/435.025
CUBEBUG 2 03 Mar 11:35:55 11:38:59 20° 292° (WNW) 11:41:56 437.445
HO-68 03 Mar 11:41:16 11:45:38 17° 306° (NW) 11:49:42 435.675
UNISAT 6 03 Mar 11:43:43 11:46:05 14° 270° (W) 11:48:13 437.425
DX 1 03 Mar 11:50:06 11:53:38 24° 292° (WNW) 11:57:03 434.975-435.025
QB50P1 03 Mar 11:54:17 11:57:16 18° 268° (W) 12:00:08 145.935-145.965
AISAT 03 Mar 11:55:53 12:00:10 47° 288° (WNW) 12:04:23 437.250
CUBEBUG 1 03 Mar 11:56:52 12:01:19 77° 102° (ESE) 12:05:41 437.445
QB50P2 03 Mar 11:58:43 12:01:26 16° 269° (W) 12:03:58 145.880/145.840
50 SAT 03 Mar 11:59:42 12:03:22 37° 288° (WNW) 12:07:01 437.505
BUGSAT 1 03 Mar 12:00:45 12:03:58 20° 268° (W) 12:07:04 437.445
VELOX 1 03 Mar 12:05:10 12:09:20 39° 289° (WNW) 12:13:26 145.980
HUMSAT D 03 Mar 12:10:17 12:13:31 22° 291° (WNW) 12:16:39 437.325/437.525
FUNcube-1 03 Mar 12:12:12 12:14:04 13° 295° (WNW) 12:15:45 145.935
ZACube-1 03 Mar 12:13:53 12:15:33 12° 296° (WNW) 12:17:01 437.345
DUCHIFAT 1 03 Mar 12:14:39 12:16:06 11° 272° (W) 12:17:16 145.980
UKube-1 03 Mar 12:20:02 12:22:07 13° 297° (WNW) 12:24:00 .
ESTCUBE 1 03 Mar 12:23:06 12:27:33 52° 287° (WNW) 12:31:57 437.505/2401.250
ISS 03 Mar 12:23:52 12:25:34 13° 359° (N) 12:27:16 145.825
SPROUT 03 Mar 12:26:31 12:30:33 39° 97° (E) 12:34:36 437.525
TISAT 1 03 Mar 12:28:02 12:31:57 36° 97° (E) 12:35:51 437.305
DANDE 03 Mar 12:30:11 12:31:18 12° 268° (W) 12:32:18 436.750
Gurwin Techsat 1B 03 Mar 12:45:19 12:47:30 13° 60° (ENE) 12:49:58 435.225
ITUPSAT 1 03 Mar 13:02:23 13:04:43 14° 89° (E) 13:07:18 437.325
Oscar 19 03 Mar 13:05:29 13:10:37 72° 74° (ENE) 13:15:45 437.125/150
ITAMSAT 1 03 Mar 13:06:27 13:10:42 26° 66° (ENE) 13:15:03 435.822/435.867
CUBEBUG 1 03 Mar 13:35:46 13:37:07 11° 298° (WNW) 13:38:15 437.445
ISS 03 Mar 14:00:22 14:02:53 21° 18° (NNE) 14:05:27 145.825
SWISSCUBE 03 Mar 14:01:57 14:06:44 62° 101° (E) 14:11:30 437.505
SPROUT 03 Mar 14:03:22 14:06:25 19° 293° (WNW) 14:09:20 437.525
TISAT 1 03 Mar 14:04:27 14:07:33 19° 293° (WNW) 14:10:31 437.305
BEESAT 03 Mar 14:10:25 14:15:14 70° 102° (ESE) 14:20:01 436.000
KKS-1 03 Mar 14:11:00 14:12:54 13° 89° (E) 14:15:01 437.445
Gurwin Techsat 1B 03 Mar 14:21:30 14:26:49 89° 256° (WSW) 14:32:11 435.225
AO-7 03 Mar 14:27:17 14:34:21 33° 59° (ENE) 14:41:35 29.400- 29.500
ITUPSAT 1 03 Mar 14:38:21 14:43:08 63° 287° (WNW) 14:47:54 437.325
ITAMSAT 1 03 Mar 14:45:09 14:50:02 40° 262° (W) 14:54:56 435.822/435.867
Oscar 19 03 Mar 14:48:04 14:50:36 13° 272° (W) 14:52:52 437.125/150
HORYU 2 03 Mar 15:10:45 15:15:11 79° 75° (ENE) 15:19:37 437.375
JAS-2 03 Mar 15:16:15 15:20:58 29° 64° (ENE) 15:26:14 435.910
ISS 03 Mar 15:36:24 15:39:38 80° 217° (SW) 15:42:53 145.825
SWISSCUBE 03 Mar 15:41:15 15:44:09 16° 297° (WNW) 15:46:53 437.505
KKS-1 03 Mar 15:45:38 15:50:01 58° 286° (WNW) 15:54:22 437.445
STARS 03 Mar 15:49:58 15:54:22 81° 284° (WNW) 15:58:44 437.465
BEESAT 03 Mar 15:50:01 15:52:34 14° 298° (WNW) 15:54:55 436.000
Gurwin Techsat 1B 03 Mar 16:06:40 16:07:41 10° 275° (W) 16:08:19 435.225
YUBILEINY 03 Mar 16:11:29 16:19:56 59° 91° (E) 16:28:31 435.215
M-CUBED/EXP-1 PRIME 03 Mar 16:15:22 16:18:10 17° 98° (E) 16:21:13 437.505
AUBIESAT-1 03 Mar 16:16:47 16:19:21 16° 97° (E) 16:22:12 437.475
AO-7 03 Mar 16:18:33 16:26:48 60° 258° (WSW) 16:35:01 29.400- 29.500
BEESAT 2 03 Mar 16:27:13 16:29:11 14° 110° (ESE) 16:31:21 435.950
Cubesat XI-IV 03 Mar 16:41:06 16:44:25 17° 62° (ENE) 16:47:56 437.490
CUTE-I 03 Mar 16:49:19 16:53:03 20° 63° (ENE) 16:56:57 437.470
VERMONT LUNAR 03 Mar 16:50:28 16:52:49 17° 151° (SSE) 16:55:13 437.305
JAS-2 03 Mar 17:00:46 17:05:55 40° 265° (W) 17:11:37 435.910
PHONESAT 2.4 03 Mar 17:02:11 17:03:18 11° 146° (SE) 17:04:30 2401.200-2431.200
MOZHAYETS 4 03 Mar 17:03:14 17:07:43 46° 98° (E) 17:12:12
BEESAT 3 03 Mar 17:36:09 17:40:15 88° 130° (SE) 17:44:25 437.485
AIST 1 03 Mar 17:41:19 17:44:32 20° 71° (ENE) 17:47:50
M-CUBED/EXP-1 PRIME 03 Mar 17:49:09 17:53:16 48° 292° (WNW) 17:57:40 437.505
AUBIESAT-1 03 Mar 17:50:17 17:54:27 52° 291° (WNW) 17:58:54 437.475
BEESAT 2 03 Mar 18:02:52 18:06:56 57° 306° (NW) 18:11:04 435.950
AIST 2 03 Mar 18:05:32 18:09:42 58° 119° (ESE) 18:13:56 435.215
YUBILEINY 03 Mar 18:09:42 18:17:20 31° 293° (WNW) 18:24:50 435.215
Cubesat XI-IV 03 Mar 18:18:41 18:24:01 68° 258° (WSW) 18:29:25 437.490
VERMONT LUNAR 03 Mar 18:26:54 18:30:19 54° 166° (SSE) 18:33:45 437.305
CUTE-I 03 Mar 18:27:28 18:32:44 57° 260° (W) 18:38:03 437.470
HO-68 03 Mar 18:36:18 18:40:03 16° 54° (NE) 18:44:08 435.675
PHONESAT 2.4 03 Mar 18:37:46 18:41:12 40° 161° (SSE) 18:44:40 2401.200-2431.200
BRITE-PL 03 Mar 18:39:05 18:40:55 12° 62° (ENE) 18:43:03 437.365/2234.400
MOZHAYETS 4 03 Mar 18:41:22 18:44:38 19° 294° (WNW) 18:47:46
CUBESAT XI-V 03 Mar 19:04:52 19:09:36 68° 101° (E) 19:14:16 437.345
BEESAT 3 03 Mar 19:17:00 19:19:01 13° 322° (NW) 19:20:54 437.485
AIST 1 03 Mar 19:18:19 19:22:22 35° 268° (W) 19:26:19
O/OREOS (USA 219) 03 Mar 19:22:48 19:27:26 78° 67° (ENE) 19:31:59 437.305
PRISM 03 Mar 19:23:39 19:27:53 72° 285° (WNW) 19:32:05 437.425
STRAND 1 03 Mar 19:35:01 19:40:12 77° 104° (ESE) 19:45:20 437.568
SEEDS 03 Mar 19:40:53 19:43:33 17° 67° (ENE) 19:46:22 437.485
CANX-2 03 Mar 19:45:01 19:48:24 25° 69° (ENE) 19:51:53 2200.000
AIST 2 03 Mar 19:45:39 19:48:43 18° 318° (NW) 19:51:41 435.215
CUTE 1.7 + AOD 2 03 Mar 20:02:59 20:06:47 35° 72° (ENE) 20:10:38 437.475
VERMONT LUNAR 03 Mar 20:04:39 20:08:08 78° 184° (S) 20:11:38 437.305
GOMX 1 03 Mar 20:12:55 20:18:09 56° 74° (ENE) 20:23:10 467.674
BRITE-PL 03 Mar 20:13:07 20:18:47 81° 77° (ENE) 20:24:13 437.365/2234.400
PHONESAT 2.4 03 Mar 20:15:52 20:19:30 78° 179° (S) 20:23:09 2401.200-2431.200
HO-68 03 Mar 20:19:39 20:26:46 77° 72° (ENE) 20:33:57 435.675
UWE-3 03 Mar 20:20:37 20:21:27 11° 64° (ENE) 20:22:33 435.000/436.395/437.385
PCSat 03 Mar 20:21:43 20:26:44 41° 112° (ESE) 20:31:49 145.827
GONETS M04 03 Mar 20:29:01 20:33:14 15° 78° (ENE) 20:38:02
AAUSAT CUBESAT 2 03 Mar 20:42:26 20:46:29 58° 75° (ENE) 20:50:35 437.432
DOVE 4 03 Mar 20:42:43 20:47:51 76° 76° (ENE) 20:52:45 437.250
Oscar 11 03 Mar 20:43:19 20:47:00 29° 70° (ENE) 20:50:46 145.826/435.025
CINEMA 3 03 Mar 20:43:19 20:47:46 41° 72° (ENE) 20:52:05 145.822/145.860
CUBESAT XI-V 03 Mar 20:44:05 20:46:32 14° 297° (WNW) 20:48:46 437.345
COMPASS 1 03 Mar 20:45:49 20:49:57 75° 76° (ENE) 20:54:07 437.405
CUBEBUG 2 03 Mar 20:57:05 21:01:01 31° 71° (ENE) 21:04:54 437.445
DX 1 03 Mar 21:09:26 21:13:12 29° 69° (ENE) 21:17:02 434.975-435.025
50 SAT 03 Mar 21:14:26 21:15:23 11° 65° (ENE) 21:16:33 437.505
SEEDS 03 Mar 21:15:09 21:19:07 41° 262° (W) 21:23:05 437.485
STRAND 1 03 Mar 21:16:01 21:18:49 14° 299° (WNW) 21:21:24 437.568
RS-15 03 Mar 21:16:05 21:17:22 10° 97° (E) 21:19:50 29.354- 29.394
AISAT 03 Mar 21:19:06 21:21:48 16° 65° (ENE) 21:24:40 437.250
CANX-2 03 Mar 21:20:37 21:24:17 28° 265° (W) 21:27:54 2200.000
HUMSAT D 03 Mar 21:26:48 21:30:02 23° 69° (ENE) 21:33:21 437.325/437.525
VELOX 1 03 Mar 21:27:37 21:30:43 19° 66° (ENE) 21:33:57 145.980
FUNcube-1 03 Mar 21:29:53 21:34:03 46° 73° (ENE) 21:38:10 145.935
ZACube-1 03 Mar 21:31:31 21:35:44 49° 73° (ENE) 21:39:53 437.345
UKube-1 03 Mar 21:37:00 21:41:14 54° 73° (ENE) 21:45:31 .
CUTE 1.7 + AOD 2 03 Mar 21:39:45 21:42:51 19° 268° (W) 21:45:52 437.475
VERMONT LUNAR 03 Mar 21:42:36 21:45:54 41° 199° (SSW) 21:49:12 437.305
DELFI C3 03 Mar 21:43:28 21:47:29 74° 258° (WSW) 21:51:33 145.870
ESTCUBE 1 03 Mar 21:48:05 21:50:38 15° 64° (ENE) 21:53:23 437.505/2401.250
GOMX 1 03 Mar 21:52:50 21:56:36 19° 269° (W) 22:00:04 467.674
UWE-3 03 Mar 21:53:04 21:57:31 77° 258° (WSW) 22:01:51 435.000/436.395/437.385
PHONESAT 2.4 03 Mar 21:54:19 21:57:54 57° 194° (SSW) 22:01:27 2401.200-2431.200
BRITE-PL 03 Mar 21:55:02 21:57:55 14° 273° (W) 22:00:25 437.365/2234.400
UNISAT 6 03 Mar 21:59:29 21:59:57 10° 88° (E) 22:00:44 437.425
PCSat 03 Mar 22:05:28 22:10:16 31° 311° (NW) 22:15:04 145.827
HO-68 03 Mar 22:10:17 22:15:20 19° 271° (W) 22:20:04 435.675
Oscar 11 03 Mar 22:19:40 22:23:13 24° 266° (W) 22:26:42 145.826/435.025
GONETS M04 03 Mar 22:20:12 22:28:53 82° 96° (E) 22:37:37
AAUSAT CUBESAT 2 03 Mar 22:21:13 22:22:37 11° 272° (W) 22:23:46 437.432
CINEMA 3 03 Mar 22:21:34 22:25:10 20° 268° (W) 22:28:30 145.822/145.860
TIGRISAT 03 Mar 22:21:49 22:24:48 19° 92° (E) 22:27:56 435.000
DOVE 4 03 Mar 22:23:56 22:26:10 12° 272° (W) 22:28:03 437.250
CUBEBUG 2 03 Mar 22:34:05 22:37:46 24° 266° (W) 22:41:18 437.445
ANTELSAT 03 Mar 22:35:34 22:39:14 27° 95° (E) 22:42:59 437.575/2403.000
POPSAT HIP 1 03 Mar 22:43:04 22:45:52 18° 92° (E) 22:48:47 437.405
POLYITAN 1 03 Mar 22:43:07 22:45:58 18° 92° (E) 22:48:56 437.675
DX 1 03 Mar 22:45:44 22:49:27 26° 265° (W) 22:53:06 434.975-435.025
50 SAT 03 Mar 22:45:59 22:49:57 62° 259° (W) 22:53:53 437.505
CUBEBUG 1 03 Mar 22:52:54 22:57:18 64° 74° (ENE) 23:01:43 437.445
AISAT 03 Mar 22:53:39 22:58:03 52° 260° (W) 23:02:28 437.250
HUMSAT D 03 Mar 23:02:00 23:05:43 30° 264° (W) 23:09:23 437.325/437.525
VELOX 1 03 Mar 23:02:45 23:07:02 43° 262° (W) 23:11:19 145.980
NANOSAT C BR1 03 Mar 23:05:04 23:08:49 31° 96° (E) 23:12:34 145.865
FUNcube-1 03 Mar 23:08:02 23:10:42 15° 270° (W) 23:13:10 145.935
ZACube-1 03 Mar 23:09:56 23:12:26 14° 270° (W) 23:14:43 437.345
UKube-1 03 Mar 23:15:31 23:17:48 14° 270° (W) 23:19:53 .
RS-15 03 Mar 23:17:09 23:27:43 62° 115° (ESE) 23:38:30 29.354- 29.394
TISAT 1 03 Mar 23:20:38 23:24:18 29° 70° (ENE) 23:28:02 437.305
SPROUT 03 Mar 23:20:56 23:24:45 32° 70° (ENE) 23:28:38 437.525
VERMONT LUNAR 03 Mar 23:22:03 23:23:17 11° 213° (SSW) 23:24:25 437.305
ESTCUBE 1 03 Mar 23:22:40 23:27:07 56° 260° (W) 23:31:36 437.505/2401.250
UNISAT 6 03 Mar 23:33:01 23:37:18 68° 285° (WNW) 23:41:38 437.425
PHONESAT 2.4 03 Mar 23:33:18 23:35:57 19° 209° (SSW) 23:38:34 2401.200-2431.200
QB50P1 03 Mar 23:37:54 23:42:09 75° 102° (ESE) 23:46:21 145.935-145.965
BUGSAT 1 03 Mar 23:41:57 23:46:04 60° 100° (E) 23:50:07 437.445
QB50P2 03 Mar 23:42:11 23:46:26 85° 100° (E) 23:50:40 145.880/145.840
DANDE 03 Mar 23:55:54 00:02:15 44° 97° (E) 00:07:10 436.750
DUCHIFAT 1 03 Mar 23:56:13 00:00:25 69° 286° (WNW) 00:04:36 145.980
TIGRISAT 03 Mar 23:57:46 00:01:44 37° 289° (WNW) 00:05:43 435.000
ITUPSAT 1 04 Mar 00:09:24 00:12:26 17° 64° (ENE) 00:15:39 437.325
ANTELSAT 04 Mar 00:12:23 00:16:00 26° 291° (WNW) 00:19:35 437.575/2403.000
POPSAT HIP 1 04 Mar 00:18:02 00:21:59 38° 288° (WNW) 00:25:52 437.405
POLYITAN 1 04 Mar 00:18:10 00:22:06 37° 288° (WNW) 00:25:59 437.675
CUSAT 1 04 Mar 00:18:28 00:24:46 84° 97° (E) 00:29:26 437.405
GONETS M04 04 Mar 00:20:31 00:26:59 21° 298° (WNW) 00:33:06
CUBEBUG 1 04 Mar 00:32:24 00:34:11 12° 272° (W) 00:35:43 437.445
NANOSAT C BR1 04 Mar 00:41:13 00:44:34 23° 292° (WNW) 00:47:48 145.865
BEESAT 2 04 Mar 00:45:58 00:47:46 13° 38° (NE) 00:49:41 435.950
TISAT 1 04 Mar 00:56:34 01:00:07 24° 266° (W) 01:03:37 437.305
SPROUT 04 Mar 00:57:25 01:00:55 23° 267° (W) 01:04:19 437.525
SWISSCUBE 04 Mar 01:08:33 01:13:17 72° 75° (ENE) 01:18:06 437.505
KKS-1 04 Mar 01:09:53 01:11:56 13° 63° (ENE) 01:14:11 437.445
QB50P1 04 Mar 01:16:36 01:17:30 10° 297° (WNW) 01:18:10 145.935-145.965
BEESAT 04 Mar 01:16:55 01:21:41 80° 75° (ENE) 01:26:30 436.000
Oscar 19 04 Mar 01:17:35 01:21:44 25° 93° (E) 01:25:58 437.125/150
BUGSAT 1 04 Mar 01:19:19 01:21:06 12° 296° (WNW) 01:22:42 437.445
SO-50 04 Mar 01:22:08 01:26:25 41° 116° (ESE) 01:30:54 436.795
